GW0714 Weather Reports


Display with metric or nautical units.
time (UTC)temp
F
wind
direction
speed
MPH
gust
MPH
rain 1hr
in
rain 24hr
in
rain mn
in
humidity
%
barometer
mb
20220528015530 70 34 5.0 9.0 0.00 0.00 0.00 50 1016.8
20220528015031 70 21 3.0 5.0 0.00 0.00 0.00 51 1016.8
20220528014536 70 348 1.0 8.0 0.00 0.00 0.00 51 1016.8
20220528014031 70 9 1.0 8.0 0.00 0.00 0.00 51 1016.8
20220528013531 70 336 4.0 10.0 0.00 0.00 0.00 49 1016.7
20220528013037 71 44 2.0 10.0 0.00 0.00 0.00 50 1016.7
20220528012530 71 352 5.0 10.0 0.00 0.00 0.00 49 1016.7
20220528012031 71 337 4.0 9.0 0.00 0.00 0.00 49 1016.7
20220528011538 71 341 4.0 8.0 0.00 0.00 0.00 49 1016.7
20220528011031 71 20 4.0 8.0 0.00 0.00 0.00 48 1016.7
20220528010530 71 336 3.0 8.0 0.00 0.00 0.00 48 1016.9
20220528010033 72 17 2.0 8.0 0.00 0.00 0.00 47 1016.9
20220528005530 72 325 3.0 8.0 0.00 0.00 0.00 48 1017.0
20220528005031 72 344 2.0 10.0 0.00 0.00 0.00 47 1016.9
20220528004604 72 347 3.0 10.0 0.00 0.00 0.00 47 1016.8
20220528004031 72 36 5.0 10.0 0.00 0.00 0.00 47 1016.9
20220528003531 72 331 3.0 10.0 0.00 0.00 0.00 47 1016.9
20220528003033 72 340 4.0 10.0 0.00 0.00 0.00 47 1017.0
20220528002530 73 340 5.0 9.0 0.00 0.00 0.00 46 1017.1
20220528002030 73 333 3.0 9.0 0.00 0.00 0.00 48 1017.1
20220528001534 72 5 4.0 12.0 0.00 0.00 0.00 47 1017.1
20220528001032 73 342 6.0 12.0 0.00 0.00 0.00 46 1017.1
20220528000530 73 344 3.0 9.0 0.00 0.00 0.00 46 1017.2
20220528000035 73 346 4.0 9.0 0.00 0.00 0.00 45 1017.2
20220527235535 73 19 3.0 8.0 0.00 0.00 0.00 47 1017.3
20220527235030 73 360 3.0 9.0 0.00 0.00 0.00 47 1017.3
20220527234534 73 352 5.0 9.0 0.00 0.00 0.00 45 1017.3
20220527234032 74 11 2.0 9.0 0.00 0.00 0.00 46 1017.5
20220527233529 73 352 3.0 10.0 0.00 0.00 0.00 46 1017.5
20220527233036 74 29 3.0 10.0 0.00 0.00 0.00 46 1017.6
20220527232530 74 5 5.0 10.0 0.00 0.00 0.00 46 1017.6
20220527232031 74 15 4.0 10.0 0.00 0.00 0.00 46 1017.6
20220527231533 75 352 4.0 8.0 0.00 0.00 0.00 45 1017.6
20220527231028 76 13 3.0 9.0 0.00 0.00 0.00 46 1017.5
20220527230531 75 352 2.0 11.0 0.00 0.00 0.00 45 1017.6
20220527230047 76 24 4.0 11.0 0.00 0.00 0.00 44 1017.6
20220527225528 75 37 3.0 9.0 0.00 0.00 0.00 45 1017.6
20220527225030 76 352 4.0 9.0 0.00 0.00 0.00 45 1017.7
20220527224542 75 317 2.0 9.0 0.00 0.00 0.00 46 1017.7
20220527224031 75 321 4.0 10.0 0.00 0.00 0.00 46 1017.7
20220527223531 75 38 6.0 11.0 0.00 0.00 0.00 44 1017.8
20220527223034 75 17 3.0 11.0 0.00 0.00 0.00 45 1017.9
20220527222530 75 42 5.0 11.0 0.00 0.00 0.00 45 1017.8
20220527222030 75 350 4.0 13.0 0.00 0.00 0.00 45 1017.8
20220527221543 75 9 7.0 13.0 0.00 0.00 0.00 44 1017.7
20220527221031 75 35 4.0 12.0 0.00 0.00 0.00 44 1017.8
20220527220529 75 5 5.0 11.0 0.00 0.00 0.00 44 1017.9
20220527220047 75 315 3.0 11.0 0.00 0.00 0.00 44 1018.0
20220527215527 76 44 6.0 12.0 0.00 0.00 0.00 43 1017.9
20220527215027 76 352 5.0 14.0 0.00 0.00 0.00 45 1017.9
20220527214533 76 350 6.0 14.0 0.00 0.00 0.00 45 1018.0
20220527214028 76 320 4.0 11.0 0.00 0.00 0.00 45 1018.0
20220527213527 76 339 3.0 8.0 0.00 0.00 0.00 45 1018.0
20220527213032 76 345 3.0 9.0 0.00 0.00 0.00 44 1018.0
20220527212530 76 332 3.0 9.0 0.00 0.00 0.00 44 1018.1
20220527212030 77 300 4.0 9.0 0.00 0.00 0.00 44 1018.0
20220527211543 76 5 2.0 9.0 0.00 0.00 0.00 47 1017.9
20220527211036 76 349 2.0 9.0 0.00 0.00 0.00 46 1018.1
20220527210533 75 334 3.0 8.0 0.00 0.00 0.00 48 1018.2
20220527210038 74 340 2.0 9.0 0.00 0.00 0.00 49 1018.2
20220527205530 73 12 3.0 9.0 0.00 0.00 0.00 49 1018.2
20220527205028 73 342 3.0 9.0 0.00 0.00 0.00 49 1018.2
20220527204532 73 317 3.0 9.0 0.00 0.00 0.00 47 1018.2
20220527204032 73 0 3.0 9.0 0.00 0.00 0.00 49 1018.3
20220527203531 73 15 2.0 10.0 0.00 0.00 0.00 51 1018.3
20220527203031 73 0 2.0 10.0 0.00 0.00 0.00 50 1018.3
20220527202532 74 321 2.0 11.0 0.00 0.00 0.00 51 1018.4
20220527202028 73 19 3.0 11.0 0.00 0.00 0.00 53 1018.4
20220527201603 73 23 3.0 8.0 0.00 0.00 0.00 53 1018.4
20220527201030 72 20 2.0 9.0 0.00 0.00 0.00 52 1018.6
20220527200531 72 331 3.0 10.0 0.00 0.00 0.00 51 1018.6
20220527200038 72 5 3.0 10.0 0.00 0.00 0.00 53 1018.5
20220527195533 71 10 3.0 10.0 0.00 0.00 0.00 53 1018.7
20220527195029 71 76 3.0 8.0 0.00 0.00 0.00 52 1018.6
20220527194533 71 352 2.0 8.0 0.00 0.00 0.00 54 1018.7
20220527194027 71 5 3.0 8.0 0.00 0.00 0.00 54 1018.8
20220527193533 71 167 2.0 8.0 0.00 0.00 0.00 53 1018.9
20220527193043 71 18 3.0 9.0 0.00 0.00 0.00 56 1018.9
20220527192532 70 351 3.0 9.0 0.00 0.00 0.00 54 1019.0
20220527192030 70 320 4.0 9.0 0.00 0.00 0.00 53 1018.9
20220527191544 70 33 2.0 9.0 0.00 0.00 0.00 54 1018.9
20220527191030 70 111 2.0 10.0 0.00 0.00 0.00 55 1018.9
20220527190532 70 71 4.0 11.0 0.00 0.00 0.00 56 1018.8
20220527190040 70 360 5.0 11.0 0.00 0.00 0.00 55 1018.7
20220527185530 70 5 5.0 9.0 0.00 0.00 0.00 55 1018.7
20220527185033 70 20 4.0 9.0 0.00 0.00 0.00 55 1018.5
20220527184550 70 342 5.0 9.0 0.00 0.00 0.00 55 1018.5
20220527184032 70 317 4.0 8.0 0.00 0.00 0.00 58 1018.4
20220527183531 70 339 3.0 8.0 0.00 0.00 0.00 56 1018.3
20220527183054 69 300 3.0 8.0 0.00 0.00 0.00 59 1018.2
20220527182530 70 350 3.0 8.0 0.00 0.00 0.00 57 1018.2
20220527182031 69 338 2.0 8.0 0.00 0.00 0.00 58 1018.3
20220527181538 69 5 3.0 8.0 0.00 0.00 0.00 61 1018.2
20220527181031 68 324 1.0 6.0 0.00 0.00 0.00 59 1018.2
20220527180531 68 5 2.0 8.0 0.00 0.00 0.00 61 1018.3
20220527180042 68 12 3.0 8.0 0.00 0.00 0.00 59 1018.3
20220527175531 67 298 2.0 8.0 0.00 0.00 0.00 60 1018.4
20220527175031 67 0 2.0 8.0 0.00 0.00 0.00 62 1018.3
20220527174536 67 257 1.0 7.0 0.00 0.00 0.00 60 1018.3
20220527174031 67 27 4.0 7.0 0.00 0.00 0.00 60 1018.4
20220527173530 67 349 0.0 3.0 0.00 0.00 0.00 60 1018.3
20220527173044 66 352 1.0 5.0 0.00 0.00 0.00 61 1018.3
20220527172527 66 311 2.0 5.0 0.00 0.00 0.00 62 1018.2
20220527172030 66 0 1.0 6.0 0.00 0.00 0.00 62 1018.3
20220527171557 65 34 2.0 6.0 0.00 0.00 0.00 62 1018.3
20220527171027 65 338 2.0 5.0 0.00 0.00 0.00 62 1018.3
20220527170528 65 15 1.0 4.0 0.00 0.00 0.00 63 1018.3
20220527170036 64 293 1.0 5.0 0.00 0.00 0.00 64 1018.3
20220527165528 64 352 1.0 5.0 0.00 0.00 0.00 64 1018.3
20220527165029 63 290 0.0 5.0 0.00 0.00 0.00 63 1018.4
20220527164550 63 284 1.0 6.0 0.00 0.00 0.00 63 1018.4
20220527164035 62 305 2.0 6.0 0.00 0.00 0.00 65 1018.4
20220527163530 62 342 1.0 8.0 0.00 0.00 0.00 65 1018.3
20220527163040 62 288 3.0 8.0 0.00 0.00 0.00 64 1018.3
20220527162530 62 360 3.0 8.0 0.00 0.00 0.00 65 1018.2
20220527162029 62 309 2.0 8.0 0.00 0.00 0.00 65 1018.2
20220527161546 62 331 2.0 5.0 0.00 0.00 0.00 66 1018.2
20220527161032 61 283 1.0 4.0 0.00 0.00 0.00 66 1018.2
20220527160532 60 336 1.0 9.0 0.00 0.00 0.00 68 1018.3
20220527160050 60 259 3.0 9.0 0.00 0.00 0.00 67 1018.3
20220527155531 60 332 3.0 6.0 0.00 0.00 0.00 67 1018.3
20220527155031 60 347 1.0 6.0 0.00 0.00 0.00 67 1018.2
20220527154553 60 360 1.0 5.0 0.00 0.00 0.00 67 1018.2
20220527154031 59 329 2.0 8.0 0.00 0.00 0.00 67 1018.2
20220527153534 59 292 2.0 8.0 0.00 0.00 0.00 68 1018.1
20220527153049 59 348 2.0 8.0 0.00 0.00 0.00 67 1018.1
20220527152530 59 252 1.0 4.0 0.00 0.00 0.00 67 1018.0
20220527152028 59 235 1.0 4.0 0.00 0.00 0.00 68 1018.0
20220527151532 58 342 1.0 6.0 0.00 0.00 0.00 68 1018.0
20220527151034 58 0 2.0 8.0 0.00 0.00 0.00 68 1018.0
20220527150532 58 319 3.0 9.0 0.00 0.00 0.00 68 1018.0
20220527150037 57 9 3.0 9.0 0.00 0.00 0.00 68 1018.0
20220527145527 58 343 3.0 8.0 0.00 0.00 0.00 68 1018.0
20220527145027 58 5 3.0 8.0 0.00 0.00 0.00 68 1017.9
20220527144535 58 26 2.0 8.0 0.00 0.00 0.00 67 1017.8
20220527144029 58 292 2.0 6.0 0.00 0.00 0.00 67 1017.8
20220527143527 58 336 2.0 6.0 0.00 0.00 0.00 66 1017.7
20220527143050 58 247 1.0 4.0 0.00 0.00 0.00 67 1017.6
20220527142527 57 284 1.0 4.0 0.00 0.00 0.00 68 1017.4
20220527142029 57 284 1.0 2.0 0.00 0.00 0.00 67 1017.4
20220527141532 57 275 0.0 2.0 0.00 0.00 0.00 69 1017.4
20220527141031 56 0 0.0 3.0 0.00 0.00 0.00 69 1017.4
20220527140530 56 290 1.0 3.0 0.00 0.00 0.00 69 1017.3
20220527140033 56 236 0.0 3.0 0.00 0.00 0.00 70 1017.3
20220527135530 56 267 1.0 3.0 0.00 0.00 0.00 71 1017.3
20220527135030 55 291 1.0 4.0 0.00 0.00 0.00 71 1017.3
20220527134550 55 268 1.0 4.0 0.00 0.00 0.00 72 1017.1
20220527134030 55 271 1.0 3.0 0.00 0.00 0.00 72 1017.0
20220527133533 55 272 1.0 3.0 0.00 0.00 0.00 72 1016.9
20220527133034 55 300 1.0 4.0 0.00 0.00 0.00 72 1016.8
20220527132532 55 284 2.0 5.0 0.00 0.00 0.00 72 1016.8
20220527132032 55 257 2.0 5.0 0.00 0.00 0.00 72 1016.9
20220527131537 55 296 2.0 5.0 0.00 0.00 0.00 73 1016.9
20220527131028 55 275 2.0 6.0 0.00 0.00 0.00 73 1016.9
20220527130531 55 292 2.0 6.0 0.00 0.00 0.00 73 1016.9
20220527130050 55 317 2.0 6.0 0.00 0.00 0.00 73 1016.8
20220527125532 55 283 2.0 6.0 0.00 0.00 0.00 73 1016.9
20220527125029 55 306 2.0 6.0 0.00 0.00 0.00 73 1017.0
20220527124532 55 289 2.0 4.0 0.00 0.00 0.00 73 1017.1
20220527124027 55 273 1.0 5.0 0.00 0.00 0.00 73 1017.0
20220527123529 55 298 2.0 5.0 0.00 0.00 0.00 73 1017.1
20220527123046 55 259 2.0 6.0 0.00 0.00 0.00 73 1017.0
20220527122530 55 327 2.0 6.0 0.00 0.00 0.00 73 1017.0
20220527122029 55 295 2.0 4.0 0.00 0.00 0.00 73 1017.0
20220527121531 55 286 2.0 4.0 0.00 0.00 0.00 73 1017.0
20220527121034 55 296 2.0 4.0 0.00 0.00 0.00 73 1017.1
20220527120532 55 292 2.0 8.0 0.00 0.00 0.00 73 1017.1
20220527120038 55 303 2.0 8.0 0.00 0.00 0.00 73 1016.9
20220527115530 55 335 2.0 5.0 0.00 0.00 0.00 73 1017.1
20220527115030 55 249 2.0 5.0 0.00 0.00 0.00 73 1017.1
20220527114541 55 276 2.0 4.0 0.00 0.00 0.00 73 1017.1
20220527114031 55 281 2.0 5.0 0.00 0.00 0.00 72 1017.1
20220527113530 55 155 1.0 5.0 0.00 0.00 0.00 72 1016.9
20220527113036 55 294 2.0 5.0 0.00 0.00 0.00 72 1017.0
20220527112530 55 239 2.0 5.0 0.00 0.00 0.00 71 1016.8
20220527112030 56 299 2.0 5.0 0.00 0.00 0.00 70 1017.0
20220527111543 56 250 2.0 5.0 0.00 0.00 0.00 70 1016.9
20220527111030 56 196 1.0 5.0 0.00 0.00 0.00 69 1017.0
20220527110533 56 5 2.0 5.0 0.00 0.00 0.00 69 1016.9
20220527110105 56 286 2.0 6.0 0.00 0.00 0.00 69 1016.8
20220527105529 56 297 2.0 7.0 0.00 0.00 0.00 69 1016.7
20220527105031 56 278 2.0 7.0 0.00 0.00 0.00 69 1016.7
20220527104534 56 239 2.0 5.0 0.00 0.00 0.00 69 1016.6
20220527104032 56 266 1.0 4.0 0.00 0.00 0.00 69 1016.6
20220527103530 56 267 1.0 4.0 0.00 0.00 0.00 69 1016.5
20220527103033 56 268 1.0 5.0 0.00 0.00 0.00 69 1016.4
20220527102531 56 217 1.0 6.0 0.00 0.00 0.00 69 1016.4
20220527102034 56 293 2.0 6.0 0.00 0.00 0.00 69 1016.4
20220527101539 56 290 2.0 4.0 0.00 0.00 0.00 69 1016.4
20220527101030 56 269 2.0 4.0 0.00 0.00 0.00 70 1016.4
20220527100530 56 288 2.0 4.0 0.00 0.00 0.00 70 1016.4
20220527100035 56 303 2.0 4.0 0.00 0.00 0.00 70 1016.4
20220527095531 56 278 2.0 4.0 0.00 0.00 0.00 69 1016.5
20220527095030 56 275 2.0 4.0 0.00 0.00 0.00 69 1016.5
20220527094544 56 286 1.0 4.0 0.00 0.00 0.00 69 1016.6
20220527094030 56 280 2.0 4.0 0.00 0.00 0.00 68 1016.4
20220527093531 57 268 1.0 4.0 0.00 0.00 0.00 68 1016.5
20220527093034 57 215 2.0 4.0 0.00 0.00 0.00 67 1016.6
20220527092530 57 255 1.0 4.0 0.00 0.00 0.00 66 1016.5
20220527092032 57 293 1.0 7.0 0.00 0.00 0.00 66 1016.6
20220527091534 58 286 1.0 7.0 0.00 0.00 0.00 65 1016.5
20220527091039 58 344 1.0 8.0 0.00 0.00 0.00 64 1016.5
20220527090531 58 267 2.0 8.0 0.00 0.00 0.00 63 1016.4
20220527090038 59 296 2.0 8.0 0.00 0.00 0.00 62 1016.4
20220527085532 59 299 3.0 8.0 0.00 0.00 0.00 61 1016.4
20220527085030 59 293 2.0 6.0 0.00 0.00 0.00 61 1016.4
20220527084601 59 278 1.0 4.0 0.00 0.00 0.00 60 1016.3
20220527084027 59 269 2.0 4.0 0.00 0.00 0.00 60 1016.2
20220527083533 59 259 2.0 3.0 0.00 0.00 0.00 59 1016.1
20220527083037 60 254 1.0 3.0 0.00 0.00 0.00 59 1016.0
20220527082531 60 277 1.0 3.0 0.00 0.00 0.00 58 1016.1
20220527082027 60 277 2.0 5.0 0.00 0.00 0.00 58 1016.0
20220527081538 60 284 1.0 5.0 0.00 0.00 0.00 57 1016.0
20220527081035 60 282 1.0 8.0 0.00 0.00 0.00 57 1016.2
20220527080530 60 275 1.0 8.0 0.00 0.00 0.00 57 1016.2
20220527080032 61 332 1.0 8.0 0.00 0.00 0.00 57 1016.1
20220527075530 61 251 1.0 6.0 0.00 0.00 0.00 56 1016.1
20220527075030 61 271 1.0 4.0 0.00 0.00 0.00 56 1016.0
20220527074539 61 293 1.0 4.0 0.00 0.00 0.00 56 1015.9
20220527074030 61 252 1.0 5.0 0.00 0.00 0.00 56 1016.0
20220527073532 61 323 1.0 7.0 0.00 0.00 0.00 56 1015.8
20220527073039 61 296 2.0 7.0 0.00 0.00 0.00 56 1015.7
20220527072534 61 252 3.0 8.0 0.00 0.00 0.00 56 1015.8
20220527072030 61 267 2.0 8.0 0.00 0.00 0.00 56 1015.7
20220527071612 61 301 2.0 8.0 0.00 0.00 0.00 56 1015.6
20220527071027 61 254 2.0 9.0 0.00 0.00 0.00 56 1015.6
20220527070531 61 236 2.0 9.0 0.00 0.00 0.00 56 1015.6
20220527070049 61 283 3.0 9.0 0.00 0.00 0.00 56 1015.6
20220527065526 61 290 3.0 8.0 0.00 0.00 0.00 56 1015.6
20220527065030 61 303 3.0 8.0 0.00 0.00 0.00 56 1015.5
20220527064532 61 299 3.0 8.0 0.00 0.00 0.00 56 1015.6
20220527064031 61 298 3.0 8.0 0.00 0.00 0.00 56 1015.6
20220527063530 61 49 3.0 8.0 0.00 0.00 0.00 56 1015.7
20220527063032 61 243 3.0 8.0 0.00 0.00 0.00 56 1015.8
20220527062530 61 259 3.0 9.0 0.00 0.00 0.00 57 1015.8
20220527062031 61 306 3.0 9.0 0.00 0.00 0.00 56 1015.8
20220527061534 62 302 2.0 6.0 0.00 0.00 0.00 56 1016.0
20220527061030 62 314 2.0 4.0 0.00 0.00 0.00 56 1016.0
20220527060531 62 299 1.0 5.0 0.00 0.00 0.00 56 1016.1
20220527060038 62 288 1.0 5.0 0.00 0.00 0.00 55 1016.1
20220527055531 62 0 1.0 5.0 0.00 0.00 0.00 55 1016.1
20220527055030 62 277 1.0 5.0 0.00 0.00 0.00 54 1016.1
20220527054536 62 269 1.0 5.0 0.00 0.00 0.00 54 1016.1
20220527054030 63 246 1.0 5.0 0.00 0.00 0.00 53 1016.1
20220527053527 63 344 2.0 5.0 0.00 0.00 0.00 53 1016.1
20220527053045 63 305 1.0 8.0 0.00 0.00 0.00 53 1016.1
20220527052528 63 293 2.0 8.0 0.00 0.00 0.00 52 1016.0
20220527052026 63 279 2.0 8.0 0.00 0.00 0.00 53 1015.8
20220527051534 63 290 1.0 8.0 0.00 0.00 0.00 53 1015.8
20220527051027 63 331 1.0 11.0 0.00 0.00 0.00 53 1015.7
20220527050527 63 290 3.0 11.0 0.00 0.00 0.00 53 1015.7
20220527050044 64 352 4.0 11.0 0.00 0.00 0.00 53 1015.6
20220527045530 64 325 2.0 9.0 0.00 0.00 0.00 52 1015.4
20220527045030 64 348 3.0 9.0 0.00 0.00 0.00 50 1015.4
20220527044557 65 333 1.0 8.0 0.00 0.00 0.00 50 1015.4
20220527044030 65 347 1.0 8.0 0.00 0.00 0.00 48 1015.4
20220527043530 65 332 2.0 8.0 0.00 0.00 0.00 47 1015.2
20220527043055 66 286 1.0 6.0 0.00 0.00 0.00 46 1014.7
20220527042529 66 0 1.0 6.0 0.00 0.00 0.00 45 1014.8
20220527042029 66 323 2.0 5.0 0.00 0.00 0.00 45 1014.7
20220527041538 66 319 1.0 5.0 0.00 0.00 0.00 44 1014.7
20220527041030 66 282 1.0 5.0 0.00 0.00 0.00 44 1014.7
20220527040527 66 275 2.0 5.0 0.00 0.00 0.00 44 1014.6
20220527040036 66 0 1.0 8.0 0.00 0.00 0.00 44 1014.6
20220527035526 67 223 1.0 8.0 0.00 0.00 0.00 43 1014.5
20220527035027 67 284 1.0 6.0 0.00 0.00 0.00 43 1014.6
20220527034534 67 352 1.0 6.0 0.00 0.00 0.00 43 1014.4
20220527034030 67 286 1.0 4.0 0.00 0.00 0.00 43 1014.3
20220527033532 67 303 2.0 4.0 0.00 0.00 0.00 42 1014.0
20220527033038 67 303 1.0 4.0 0.00 0.00 0.00 41 1014.3
20220527032529 68 314 1.0 3.0 0.00 0.00 0.00 41 1014.3
20220527032030 68 253 1.0 8.0 0.00 0.00 0.00 40 1014.5
20220527031541 68 327 2.0 8.0 0.00 0.00 0.00 40 1014.8
20220527031031 68 352 2.0 8.0 0.00 0.00 0.00 40 1014.8
20220527030531 69 352 1.0 6.0 0.00 0.00 0.00 42 1014.9
20220527030049 69 5 1.0 11.0 0.00 0.00 0.00 43 1014.9
20220527025529 69 328 6.0 12.0 0.00 0.00 0.00 42 1014.8
20220527025029 70 17 4.0 12.0 0.00 0.00 0.00 43 1014.8
20220527024540 70 339 4.0 12.0 0.00 0.00 0.00 42 1014.5
20220527024029 70 291 3.0 12.0 0.00 0.00 0.00 41 1014.4
20220527023531 70 338 3.0 12.0 0.00 0.00 0.00 40 1014.3
20220527023032 71 351 2.0 9.0 0.00 0.00 0.00 40 1014.2
20220527022530 71 290 2.0 9.0 0.00 0.00 0.00 39 1014.3
20220527022027 71 306 3.0 9.0 0.00 0.00 0.00 39 1014.2
20220527021540 71 309 2.0 9.0 0.00 0.00 0.00 38 1014.2
20220527021026 72 338 2.0 9.0 0.00 0.00 0.00 37 1014.3
20220527020526 72 336 3.0 9.0 0.00 0.00 0.00 36 1014.3
20220527020041 72 331 2.0 11.0 0.00 0.00 0.00 35 1014.5